Current weather by "City, St" or "zip code"  
 
Advertise Here

Current Conditions: Watsonville, Watsonville Municipal Airport, CA

Fair


43.0 F

Last Updated on Jan 25 2021, 12:53 am PST
Humidity: 76%
Wind Speed: NW 6.9 mph
Barometer 29.86 in
Dewpoint: 36.0 F
Visibility: 10.00 mi
Precip: --
Heat Index: NA
Wind Chill: 39 F
Current conditions at:

Watsonville, Watsonville Municipal Airport, CA (KWVI)

Lat: 36.93944 Lon: 121.78889

Local Radar Image active severe weather and emergency alerts image image weather storm and storm spotter reports image weather observation monitoring service image
Local
Radar
Active
Alerts
Storm Reports Obs
Monitoring

Sign-up For Email & Text Message Weather Alert Notification Services


Advertise Here

Observation History for Watsonville, Watsonville Municipal Airport, CA


Time Wind
(mph)
Vis
(mi)
Weather Precip (in) Temperature (F) Relative
Humidity
Wind
Chill
(F)
Heat
Index
(F)
Pressure
Air Dwpt altimeter
(in)
sea level
(mb)
Rmks
12:53 am PST NW 6.9 10.00 Fair -- 43.0 36.0 76% 39 NA 29.86 1011.2
11:53 pm PST W 10.4 10.00 Fair -- 44.0 37.0 76% 38 NA 29.86 1011.3
10:53 pm PST W 8.1 10.00 Fair Trace 45.0 37.9 77% 41 NA 29.87 1011.4
9:53 pm PST NW 9.2 10.00 Light Rain Trace 46.0 39.0 77% 41 NA 29.86 1011.2
8:53 pm PST N 0.0 10.00 Overcast -- 46.0 44.1 93% NA NA 29.85 1010.7
7:53 pm PST N 0.0 10.00 Overcast 00.03 46.0 44.1 93% NA NA 29.87 1011.4
6:53 pm PST N 0.0 10.00 Light Rain Trace 46.0 45.0 96% NA NA 29.87 1011.5
5:53 pm PST N 0.0 10.00 Overcast 00.02 46.0 44.1 93% NA NA 29.87 1011.6
4:53 pm PST W 3.5 9.00 Rain 00.03 48.0 45.0 89% NA NA 29.88 1012.0
3:53 pm PST W 5.8 10.00 Light Rain 00.02 49.0 46.0 90% 47 NA 29.89 1012.3
2:53 pm PST SW 9.2 10.00 Overcast Trace 51.0 44.1 77% 48 NA 29.90 1012.4
1:53 pm PST SW 10.4 10.00 Overcast -- 50.0 43.0 77% 46 NA 29.91 1012.8
12:53 pm PST W 10.4 10.00 Overcast -- 51.0 43.0 74% 47 NA 29.92 1013.4
11:53 am PST NW 4.6 10.00 Overcast -- 51.0 44.1 77% 50 NA 29.95 1014.3
10:53 am PST N 0.0 10.00 Overcast -- 48.0 45.0 89% NA NA 29.98 1015.3
9:53 am PST N 0.0 10.00 Overcast -- 47.0 43.0 86% NA NA 29.99 1015.6
8:53 am PST N 0.0 10.00 Overcast -- 45.0 42.1 90% NA NA 29.97 1015.1
7:53 am PST N 0.0 10.00 Overcast -- 43.0 41.0 93% NA NA 29.98 1015.3
6:53 am PST N 3.5 10.00 Overcast -- 43.0 41.0 93% NA NA 29.98 1015.4
5:53 am PST N 3.5 10.00 Overcast -- 41.0 39.0 93% NA NA 29.98 1015.3
4:53 am PST NW 5.8 10.00 Overcast -- 41.0 39.0 93% 37 NA 29.97 1015.1
3:53 am PST N 3.5 10.00 Mostly Cloudy -- 40.0 37.0 89% NA NA 29.98 1015.3
2:53 am PST NW 5.8 10.00 Fair -- 40.0 37.0 89% 36 NA 29.99 1015.4
1:53 am PST N 4.6 10.00 A Few Clouds -- 39.0 37.0 93% 36 NA 29.99 1015.5

Regional Weather Observation


San Jose / Reid / Hillv, CA (KRHV)

Mostly Cloudy
46.0 F

Mountain View, Moffett Field, CA (KNUQ)

Mostly Cloudy
46.0 F

South County Airport of Santa Clara County, CA (KE16)

Overcast
43.0 F

Palo Alto Airport, CA (KPAO)

Showers Rain
46.0 F

Watsonville, Watsonville Municipal Airport, CA (KWVI)

Fair
43.0 F

San Carlos Airport, CA (KSQL)

Partly Cloudy
46.0 F